Location: Newark
(25.4800°N, 85.7200°E)
Time: 12:45:45
(UTC+00:00)

Vanguard 1 Rocket - Pass Details

Date: 26 August 2019
Orbit: 650 x 4226 km, 34.3° (Epoch: 20 October)

Event Time Altitude Azimuth Distance (km) Brightness Sun altitude
Rises 23:37:37 0° 296° (WNW) 3,207 9.7 -4.7°
Reaches altitude 10° 23:39:36 10° 298° (WNW) 2,444 9.2 -4.3°
Maximum altitude 23:45:11 75° 24° (NNE) 1,188 8.1 -3.1°
Drops below altitude 10° 23:55:33 10° 110° (ESE) 4,366 12.0 -0.8°
Sets 00:00:18 0° 111° (ESE) 5,959 12.7 0.3°
